XBKJG MMAA-MMCB

Flight info

Callsign XBKJG
Flight time 1h 10m
Altitude 13000
Route V15W TEQ V32 CVJ
Aircraft DA62/L-SC/C

Departure

Time 2026-05-06 04:04
Airport General Juan N. Álvarez International Airport (MMAA)

Arrival

Time 2026-05-06 05:14
Airport General Mariano Matamoros International Airport (MMCB)
Time Latitude Longitude Altitude Speed Heading
2026-05-06 03:22 16.76156 -99.74912 17 ft 0 kts 67°
2026-05-06 03:56 16.76131 -99.74896 17 ft 7 kts 214°
2026-05-06 03:57 16.76099 -99.74947 17 ft 9 kts 245°
2026-05-06 03:57 16.76076 -99.75006 17 ft 9 kts 248°
2026-05-06 03:57 16.76035 -99.75021 17 ft 10 kts 91°
2026-05-06 03:57 16.76031 -99.74930 17 ft 14 kts 98°
2026-05-06 03:58 16.76020 -99.74851 16 ft 1 kts 117°
2026-05-06 03:58 16.76019 -99.74849 16 ft 4 kts 122°
2026-05-06 03:58 16.75937 -99.74799 14 ft 18 kts 160°
2026-05-06 03:58 16.75831 -99.74756 16 ft 15 kts 158°
2026-05-06 03:59 16.75745 -99.74713 17 ft 13 kts 150°
2026-05-06 03:59 16.75684 -99.74649 17 ft 12 kts 114°
2026-05-06 03:59 16.75650 -99.74567 17 ft 12 kts 108°
2026-05-06 03:59 16.75627 -99.74482 17 ft 12 kts 108°
2026-05-06 04:00 16.75601 -99.74399 17 ft 12 kts 109°
2026-05-06 04:00 16.75573 -99.74315 17 ft 12 kts 116°
2026-05-06 04:00 16.75545 -99.74229 17 ft 13 kts 106°
2026-05-06 04:00 16.75520 -99.74141 17 ft 13 kts 107°
2026-05-06 04:01 16.75492 -99.74053 17 ft 13 kts 109°
2026-05-06 04:01 16.75461 -99.73960 17 ft 17 kts 110°
2026-05-06 04:01 16.75412 -99.73801 17 ft 28 kts 109°
2026-05-06 04:01 16.75342 -99.73576 17 ft 35 kts 108°
2026-05-06 04:02 16.75285 -99.73389 17 ft 20 kts 105°
2026-05-06 04:02 16.75245 -99.73332 17 ft 9 kts 165°
2026-05-06 04:02 16.75167 -99.73340 18 ft 16 kts 198°
2026-05-06 04:02 16.75093 -99.73415 17 ft 11 kts 286°
2026-05-06 04:03 16.75168 -99.73675 16 ft 65 kts 288°
2026-05-06 04:03 16.75349 -99.74259 29 ft 100 kts 288°
2026-05-06 04:03 16.75595 -99.75017 164 ft 114 kts 288°
2026-05-06 04:03 16.75840 -99.75810 425 ft 114 kts 283°
2026-05-06 04:04 16.75979 -99.76618 658 ft 111 kts 278°
2026-05-06 04:04 16.76113 -99.77386 960 ft 104 kts 281°
2026-05-06 04:04 16.76279 -99.78107 1291 ft 102 kts 282°
2026-05-06 04:04 16.76398 -99.78789 1722 ft 91 kts 283°
2026-05-06 04:05 16.76546 -99.79476 1907 ft 104 kts 279°
2026-05-06 04:05 16.76697 -99.80201 2220 ft 103 kts 281°
2026-05-06 04:05 16.76852 -99.80956 2457 ft 106 kts 280°
2026-05-06 04:05 16.76968 -99.81703 2736 ft 106 kts 276°
2026-05-06 04:06 16.77082 -99.82475 3019 ft 107 kts 279°
2026-05-06 04:06 16.77197 -99.83250 3275 ft 111 kts 276°
2026-05-06 04:06 16.77295 -99.84065 3586 ft 112 kts 279°
2026-05-06 04:06 16.77428 -99.84857 3915 ft 110 kts 279°
2026-05-06 04:07 16.77548 -99.85647 4197 ft 111 kts 278°
2026-05-06 04:07 16.77666 -99.86446 4492 ft 113 kts 277°
2026-05-06 04:07 16.77809 -99.87265 4783 ft 114 kts 281°
2026-05-06 04:07 16.77932 -99.88066 5099 ft 113 kts 278°
2026-05-06 04:08 16.78067 -99.88872 5381 ft 113 kts 280°
2026-05-06 04:08 16.78210 -99.89671 5672 ft 111 kts 279°
2026-05-06 04:08 16.78330 -99.90471 5960 ft 112 kts 281°
2026-05-06 04:08 16.78482 -99.91264 6284 ft 110 kts 280°
2026-05-06 04:09 16.78633 -99.92050 6575 ft 110 kts 282°
2026-05-06 04:09 16.78784 -99.92838 6845 ft 111 kts 281°
2026-05-06 04:09 16.78935 -99.93645 7105 ft 114 kts 281°
2026-05-06 04:09 16.79077 -99.94459 7395 ft 115 kts 280°
2026-05-06 04:10 16.79229 -99.95288 7659 ft 117 kts 282°
2026-05-06 04:10 16.79388 -99.96120 7949 ft 118 kts 281°
2026-05-06 04:10 16.79543 -99.96976 8199 ft 122 kts 281°
2026-05-06 04:10 16.79685 -99.97851 8489 ft 123 kts 280°
2026-05-06 04:11 16.79841 -99.98734 8769 ft 125 kts 280°
2026-05-06 04:11 16.79981 -99.99647 8997 ft 131 kts 288°
2026-05-06 04:11 16.80490 -100.00420 9262 ft 130 kts 324°
2026-05-06 04:11 16.81308 -100.00733 9552 ft 130 kts
2026-05-06 04:12 16.82220 -100.00570 9779 ft 133 kts 15°
2026-05-06 04:12 16.83098 -100.00288 10060 ft 132 kts 20°
2026-05-06 04:12 16.83980 -99.99996 10330 ft 132 kts 20°
2026-05-06 04:12 16.84844 -99.99722 10658 ft 127 kts 22°
2026-05-06 04:13 16.85628 -99.99291 10911 ft 129 kts 33°
2026-05-06 04:13 16.86409 -99.98815 11177 ft 131 kts 35°
2026-05-06 04:13 16.87211 -99.98337 11410 ft 136 kts 27°
2026-05-06 04:13 16.87338 -99.98276 11446 ft 136 kts 28°
2026-05-06 04:14 16.88199 -99.97852 11722 ft 137 kts 29°
2026-05-06 04:14 16.89054 -99.97410 12000 ft 138 kts 31°
2026-05-06 04:14 16.89892 -99.96926 12270 ft 137 kts 38°
2026-05-06 04:14 16.90643 -99.96304 12517 ft 139 kts 45°
2026-05-06 04:15 16.91358 -99.95613 12762 ft 141 kts 49°
2026-05-06 04:15 16.92015 -99.94821 12913 ft 149 kts 53°
2026-05-06 04:15 16.92677 -99.94007 13200 ft 146 kts 56°
2026-05-06 04:15 16.93355 -99.93114 13171 ft 163 kts 55°
2026-05-06 04:16 16.94086 -99.92185 13290 ft 167 kts 49°
2026-05-06 04:16 16.94913 -99.91375 13635 ft 160 kts 46°
2026-05-06 04:16 16.95749 -99.90545 13591 ft 175 kts 47°
2026-05-06 04:16 16.96640 -99.89622 13373 ft 175 kts 54°
2026-05-06 04:17 16.97282 -99.88689 13214 ft 144 kts 59°
2026-05-06 04:17 16.97791 -99.87867 13008 ft 121 kts 60°
2026-05-06 04:17 16.98241 -99.87164 13050 ft 118 kts 59°
2026-05-06 04:17 16.98708 -99.86439 13055 ft 122 kts 59°
2026-05-06 04:18 16.99188 -99.85688 13057 ft 127 kts 59°
2026-05-06 04:18 16.99681 -99.84912 13060 ft 130 kts 61°
2026-05-06 04:18 17.00018 -99.84051 13113 ft 126 kts 80°
2026-05-06 04:18 17.00083 -99.83145 13138 ft 127 kts 89°
2026-05-06 04:19 17.00100 -99.82205 13132 ft 130 kts 87°
2026-05-06 04:19 17.00188 -99.81247 13066 ft 136 kts 82°
2026-05-06 04:19 17.00378 -99.80273 13066 ft 137 kts 79°
2026-05-06 04:19 17.00552 -99.79290 13066 ft 138 kts 80°
2026-05-06 04:20 17.00726 -99.78300 13063 ft 139 kts 80°
2026-05-06 04:20 17.00999 -99.77337 13062 ft 139 kts 65°
2026-05-06 04:20 17.01586 -99.76529 13063 ft 143 kts 43°
2026-05-06 04:20 17.02514 -99.76138 13062 ft 151 kts
2026-05-06 04:21 17.03571 -99.76224 13066 ft 153 kts 359°
2026-05-06 04:21 17.04614 -99.76331 13065 ft 152 kts
2026-05-06 04:21 17.05684 -99.76410 13066 ft 152 kts
2026-05-06 04:21 17.06731 -99.76487 13064 ft 153 kts
2026-05-06 04:22 17.07812 -99.76565 13062 ft 154 kts
2026-05-06 04:22 17.08877 -99.76615 13062 ft 153 kts
2026-05-06 04:22 17.09936 -99.76636 13085 ft 152 kts
2026-05-06 04:23 17.12025 -99.76510 13081 ft 151 kts
2026-05-06 04:23 17.13087 -99.76442 13080 ft 151 kts
2026-05-06 04:23 17.14134 -99.76475 13077 ft 150 kts
2026-05-06 04:23 17.15173 -99.76547 13079 ft 150 kts
2026-05-06 04:24 17.16215 -99.76606 13080 ft 151 kts
2026-05-06 04:24 17.17256 -99.76648 13080 ft 152 kts
2026-05-06 04:24 17.18310 -99.76672 13076 ft 151 kts
2026-05-06 04:24 17.19361 -99.76648 13080 ft 152 kts
2026-05-06 04:25 17.20421 -99.76622 13083 ft 153 kts
2026-05-06 04:25 17.21508 -99.76595 13083 ft 155 kts
2026-05-06 04:25 17.22587 -99.76569 13083 ft 155 kts
2026-05-06 04:25 17.23671 -99.76543 13102 ft 156 kts
2026-05-06 04:26 17.24754 -99.76517 13100 ft 156 kts
2026-05-06 04:26 17.25843 -99.76506 13101 ft 157 kts
2026-05-06 04:26 17.26938 -99.76527 13100 ft 158 kts
2026-05-06 04:26 17.28034 -99.76577 13100 ft 158 kts
2026-05-06 04:27 17.29133 -99.76629 13099 ft 158 kts
2026-05-06 04:27 17.30229 -99.76681 13099 ft 158 kts
2026-05-06 04:27 17.31323 -99.76697 13099 ft 157 kts
2026-05-06 04:27 17.32418 -99.76692 13098 ft 157 kts
2026-05-06 04:28 17.33510 -99.76687 13097 ft 157 kts
2026-05-06 04:28 17.34605 -99.76696 13097 ft 158 kts
2026-05-06 04:28 17.35705 -99.76723 13096 ft 159 kts
2026-05-06 04:28 17.36791 -99.76793 13094 ft 158 kts
2026-05-06 04:29 17.37880 -99.76809 13093 ft 156 kts
2026-05-06 04:29 17.38973 -99.76802 13091 ft 154 kts
2026-05-06 04:29 17.40045 -99.76793 13090 ft 154 kts
2026-05-06 04:29 17.41113 -99.76822 13092 ft 153 kts
2026-05-06 04:30 17.42188 -99.76889 13090 ft 157 kts
2026-05-06 04:30 17.42913 -99.76936 13087 ft 158 kts
2026-05-06 04:30 17.44018 -99.76986 13095 ft 160 kts
2026-05-06 04:30 17.45503 -99.76990 13095 ft 162 kts
2026-05-06 04:31 17.46639 -99.76976 13093 ft 165 kts
2026-05-06 04:31 17.47796 -99.76960 13093 ft 168 kts
2026-05-06 04:31 17.48973 -99.76942 13088 ft 170 kts
2026-05-06 04:31 17.50156 -99.76927 13090 ft 171 kts
2026-05-06 04:32 17.50964 -99.76983 13058 ft 173 kts 360°
2026-05-06 04:32 17.52160 -99.77104 13055 ft 173 kts
2026-05-06 04:32 17.53349 -99.77191 13049 ft 168 kts
2026-05-06 04:32 17.54507 -99.77254 13057 ft 168 kts
2026-05-06 04:33 17.55676 -99.77276 13061 ft 169 kts
2026-05-06 04:33 17.56859 -99.77285 13057 ft 171 kts
2026-05-06 04:33 17.58045 -99.77314 13056 ft 170 kts
2026-05-06 04:33 17.59234 -99.77321 13058 ft 172 kts
2026-05-06 04:34 17.60431 -99.77322 13055 ft 172 kts
2026-05-06 04:34 17.61609 -99.77321 13059 ft 171 kts
2026-05-06 04:34 17.62817 -99.77322 13061 ft 172 kts
2026-05-06 04:34 17.64016 -99.77332 13010 ft 172 kts
2026-05-06 04:35 17.65220 -99.77350 13010 ft 174 kts
2026-05-06 04:35 17.66436 -99.77372 13005 ft 175 kts
2026-05-06 04:35 17.67645 -99.77389 13000 ft 172 kts
2026-05-06 04:35 17.68833 -99.77404 13006 ft 172 kts
2026-05-06 04:36 17.70022 -99.77426 13006 ft 174 kts
2026-05-06 04:36 17.71235 -99.77449 13009 ft 175 kts
2026-05-06 04:36 17.72455 -99.77468 13007 ft 176 kts
2026-05-06 04:36 17.73675 -99.77490 13006 ft 176 kts
2026-05-06 04:37 17.74897 -99.77512 13005 ft 174 kts
2026-05-06 04:37 17.76112 -99.77554 13003 ft 175 kts
2026-05-06 04:37 17.77327 -99.77599 13008 ft 175 kts
2026-05-06 04:37 17.78494 -99.77393 12948 ft 167 kts 27°
2026-05-06 04:38 17.79537 -99.76895 12954 ft 163 kts 32°
2026-05-06 04:38 17.80535 -99.76324 12955 ft 164 kts 34°
2026-05-06 04:38 17.81538 -99.75736 12954 ft 165 kts 34°
2026-05-06 04:38 17.82542 -99.75141 12954 ft 166 kts 35°
2026-05-06 04:39 17.83515 -99.74498 12948 ft 165 kts 37°
2026-05-06 04:39 17.84490 -99.73870 12955 ft 164 kts 36°
2026-05-06 04:39 17.85482 -99.73259 12953 ft 165 kts 36°
2026-05-06 04:39 17.86482 -99.72662 12955 ft 166 kts 34°
2026-05-06 04:40 17.87500 -99.72079 12952 ft 168 kts 33°
2026-05-06 04:40 17.88196 -99.71687 12952 ft 169 kts 33°
2026-05-06 04:40 17.89583 -99.70939 12951 ft 169 kts 31°
2026-05-06 04:40 17.90640 -99.70395 12951 ft 169 kts 31°
2026-05-06 04:41 17.91686 -99.69837 12913 ft 168 kts 32°
2026-05-06 04:41 17.92706 -99.69261 12923 ft 166 kts 34°
2026-05-06 04:41 17.93703 -99.68643 12915 ft 166 kts 37°
2026-05-06 04:41 17.94690 -99.68008 12912 ft 167 kts 36°
2026-05-06 04:42 17.95691 -99.67388 12906 ft 167 kts 35°
2026-05-06 04:42 17.96704 -99.66794 12908 ft 167 kts 32°
2026-05-06 04:42 17.97738 -99.66234 12909 ft 167 kts 32°
2026-05-06 04:42 17.98768 -99.65665 12908 ft 167 kts 33°
2026-05-06 04:43 17.99787 -99.65090 12904 ft 166 kts 33°
2026-05-06 04:43 18.00794 -99.64514 12908 ft 164 kts 33°
2026-05-06 04:43 18.01804 -99.63943 12907 ft 165 kts 33°
2026-05-06 04:43 18.02818 -99.63368 12907 ft 165 kts 34°
2026-05-06 04:44 18.03824 -99.62782 12901 ft 165 kts 34°
2026-05-06 04:44 18.04826 -99.62192 12901 ft 165 kts 34°
2026-05-06 04:44 18.05835 -99.61621 12899 ft 165 kts 32°
2026-05-06 04:44 18.06847 -99.61065 12899 ft 163 kts 34°
2026-05-06 04:45 18.07816 -99.60443 12901 ft 164 kts 37°
2026-05-06 04:45 18.08803 -99.59811 12901 ft 164 kts 35°
2026-05-06 04:45 18.09797 -99.59218 12902 ft 165 kts 34°
2026-05-06 04:45 18.10788 -99.58646 12901 ft 165 kts 33°
2026-05-06 04:46 18.11800 -99.58076 12898 ft 165 kts 33°
2026-05-06 04:46 18.12813 -99.57510 12899 ft 165 kts 33°
2026-05-06 04:46 18.13829 -99.56940 12899 ft 165 kts 33°
2026-05-06 04:46 18.14845 -99.56370 12899 ft 166 kts 33°
2026-05-06 04:47 18.15861 -99.55800 12896 ft 165 kts 33°
2026-05-06 04:47 18.16875 -99.55229 12895 ft 165 kts 33°
2026-05-06 04:47 18.17878 -99.54645 12894 ft 164 kts 34°
2026-05-06 04:47 18.18874 -99.54058 12897 ft 164 kts 34°
2026-05-06 04:48 18.19867 -99.53469 12873 ft 164 kts 34°
2026-05-06 04:48 18.20858 -99.52882 12873 ft 164 kts 34°
2026-05-06 04:48 18.21850 -99.52296 12872 ft 163 kts 34°
2026-05-06 04:48 18.22838 -99.51712 12873 ft 163 kts 34°
2026-05-06 04:49 18.23829 -99.51132 12870 ft 163 kts 34°
2026-05-06 04:49 18.24818 -99.50550 12870 ft 163 kts 34°
2026-05-06 04:49 18.25808 -99.49966 12869 ft 163 kts 34°
2026-05-06 04:49 18.26795 -99.49383 12869 ft 163 kts 34°
2026-05-06 04:50 18.27783 -99.48799 12870 ft 163 kts 34°
2026-05-06 04:50 18.28770 -99.48216 12870 ft 163 kts 34°
2026-05-06 04:50 18.29759 -99.47633 12870 ft 163 kts 34°
2026-05-06 04:50 18.30748 -99.47051 12870 ft 163 kts 34°
2026-05-06 04:51 18.31740 -99.46468 12868 ft 163 kts 34°
2026-05-06 04:51 18.32739 -99.45895 12868 ft 163 kts 33°
2026-05-06 04:51 18.33733 -99.45321 12863 ft 163 kts 33°
2026-05-06 04:51 18.34726 -99.44751 12862 ft 162 kts 33°
2026-05-06 04:52 18.35717 -99.44182 12853 ft 163 kts 33°
2026-05-06 04:52 18.36719 -99.43599 12799 ft 167 kts 33°
2026-05-06 04:52 18.37744 -99.43001 12723 ft 170 kts 33°
2026-05-06 04:52 18.38787 -99.42388 12632 ft 172 kts 33°
2026-05-06 04:53 18.39838 -99.41774 12528 ft 170 kts 33°
2026-05-06 04:53 18.40828 -99.41193 12425 ft 157 kts 33°
2026-05-06 04:53 18.41752 -99.40653 12298 ft 148 kts 33°
2026-05-06 04:53 18.42638 -99.40152 12152 ft 142 kts 33°
2026-05-06 04:54 18.43491 -99.39659 11981 ft 138 kts 34°
2026-05-06 04:54 18.44327 -99.39174 11789 ft 137 kts 32°
2026-05-06 04:54 18.45146 -99.38688 11510 ft 135 kts 33°
2026-05-06 04:54 18.45962 -99.38208 11282 ft 134 kts 32°
2026-05-06 04:55 18.46773 -99.37724 11091 ft 133 kts 33°
2026-05-06 04:55 18.47573 -99.37231 10926 ft 133 kts 32°
2026-05-06 04:55 18.48366 -99.36732 10761 ft 133 kts 33°
2026-05-06 04:55 18.49156 -99.36234 10605 ft 132 kts 32°
2026-05-06 04:56 18.49941 -99.35732 10437 ft 132 kts 33°
2026-05-06 04:56 18.50748 -99.35262 10270 ft 133 kts 29°
2026-05-06 04:56 18.51560 -99.34804 10104 ft 132 kts 29°
2026-05-06 04:56 18.52367 -99.34342 9934 ft 132 kts 29°
2026-05-06 04:57 18.53158 -99.33879 9833 ft 125 kts 29°
2026-05-06 04:57 18.53874 -99.33457 9821 ft 111 kts 29°
2026-05-06 04:57 18.54498 -99.33085 9811 ft 96 kts 29°
2026-05-06 04:57 18.55085 -99.32742 9847 ft 106 kts 29°
2026-05-06 04:58 18.55823 -99.32311 9836 ft 135 kts 29°
2026-05-06 04:58 18.56714 -99.31789 9834 ft 156 kts 29°
2026-05-06 04:58 18.57710 -99.31208 9836 ft 170 kts 29°
2026-05-06 04:58 18.58776 -99.30586 9834 ft 180 kts 29°
2026-05-06 04:59 18.59890 -99.29937 9833 ft 186 kts 29°
2026-05-06 04:59 18.60988 -99.29305 9828 ft 175 kts 28°
2026-05-06 04:59 18.62051 -99.28710 9723 ft 170 kts 28°
2026-05-06 04:59 18.63069 -99.28138 9706 ft 161 kts 28°
2026-05-06 05:00 18.64035 -99.27596 9700 ft 155 kts 28°
2026-05-06 05:00 18.64982 -99.27065 9699 ft 153 kts 28°
2026-05-06 05:00 18.65915 -99.26541 9698 ft 151 kts 28°
2026-05-06 05:00 18.66841 -99.26021 9697 ft 150 kts 28°
2026-05-06 05:01 18.67762 -99.25503 9696 ft 149 kts 28°
2026-05-06 05:01 18.68751 -99.25243 9697 ft 149 kts 359°
2026-05-06 05:01 18.69778 -99.25338 9697 ft 148 kts 353°
2026-05-06 05:01 18.70800 -99.25475 9697 ft 148 kts 353°
2026-05-06 05:02 18.71834 -99.25614 9638 ft 152 kts 353°
2026-05-06 05:02 18.72897 -99.25755 9567 ft 155 kts 353°
2026-05-06 05:02 18.73978 -99.25896 9498 ft 157 kts 353°
2026-05-06 05:02 18.75070 -99.26020 9430 ft 159 kts 355°
2026-05-06 05:03 18.76183 -99.26113 9343 ft 162 kts 356°
2026-05-06 05:03 18.77319 -99.26190 9226 ft 165 kts 356°
2026-05-06 05:03 18.78343 -99.26253 9007 ft 131 kts 355°
2026-05-06 05:03 18.79193 -99.26326 8714 ft 116 kts 354°
2026-05-06 05:04 18.79977 -99.26404 8372 ft 110 kts 352°
2026-05-06 05:04 18.80740 -99.26473 8034 ft 109 kts 352°
2026-05-06 05:04 18.81484 -99.26574 7731 ft 105 kts 340°
2026-05-06 05:04 18.81952 -99.27067 7783 ft 107 kts 282°
2026-05-06 05:05 18.81689 -99.27891 7747 ft 136 kts 232°
2026-05-06 05:05 18.81041 -99.28712 7743 ft 154 kts 233°
2026-05-06 05:05 18.80387 -99.29662 7748 ft 166 kts 236°
2026-05-06 05:05 18.79712 -99.30645 7650 ft 158 kts 232°
2026-05-06 05:06 18.79036 -99.31498 7476 ft 145 kts 231°
2026-05-06 05:06 18.78403 -99.32280 7276 ft 136 kts 231°
2026-05-06 05:06 18.77802 -99.33020 7047 ft 130 kts 231°
2026-05-06 05:06 18.77221 -99.33729 6835 ft 126 kts 231°
2026-05-06 05:07 18.76654 -99.34414 6611 ft 123 kts 231°
2026-05-06 05:07 18.76121 -99.35054 6553 ft 111 kts 230°
2026-05-06 05:07 18.75591 -99.35690 6555 ft 121 kts 231°
2026-05-06 05:07 18.75015 -99.36389 6557 ft 131 kts 231°
2026-05-06 05:08 18.74401 -99.37139 6539 ft 139 kts 231°
2026-05-06 05:08 18.73758 -99.37925 6538 ft 143 kts 231°
2026-05-06 05:08 18.73024 -99.38634 6539 ft 148 kts 215°
2026-05-06 05:08 18.72034 -99.39017 6556 ft 154 kts 188°
2026-05-06 05:09 18.70975 -99.38872 6555 ft 159 kts 162°
2026-05-06 05:09 18.70074 -99.38190 6532 ft 163 kts 133°
2026-05-06 05:09 18.69576 -99.37125 6530 ft 166 kts 99°
2026-05-06 05:09 18.69621 -99.35914 6530 ft 167 kts 78°
2026-05-06 05:10 18.70165 -99.34863 6525 ft 166 kts 39°
2026-05-06 05:10 18.71094 -99.34174 6527 ft 159 kts 31°
2026-05-06 05:10 18.72001 -99.33541 6511 ft 155 kts 31°
2026-05-06 05:10 18.72899 -99.32913 6442 ft 156 kts 31°
2026-05-06 05:11 18.73808 -99.32276 6342 ft 159 kts 31°
2026-05-06 05:11 18.74749 -99.31642 6206 ft 162 kts 27°
2026-05-06 05:11 18.75743 -99.31065 6082 ft 163 kts 25°
2026-05-06 05:11 18.76659 -99.30529 5862 ft 138 kts 31°
2026-05-06 05:12 18.77425 -99.30000 5468 ft 126 kts 28°
2026-05-06 05:12 18.78158 -99.29541 5081 ft 116 kts 31°
2026-05-06 05:12 18.78850 -99.29119 4821 ft 113 kts 27°
2026-05-06 05:12 18.79513 -99.28684 4624 ft 116 kts 31°
2026-05-06 05:13 18.80179 -99.28269 4515 ft 110 kts 30°
2026-05-06 05:13 18.80857 -99.27825 4444 ft 112 kts 30°
2026-05-06 05:13 18.81514 -99.27423 4145 ft 105 kts 32°
2026-05-06 05:13 18.82129 -99.27014 4043 ft 102 kts 31°
2026-05-06 05:14 18.82525 -99.26760 4006 ft 102 kts 30°
2026-05-06 05:14 18.82984 -99.26466 4001 ft 32 kts 32°
2026-05-06 05:14 18.83021 -99.26441 4002 ft 0 kts 31°